This is the latest recevied weather packets stored in our database for station/object K8BCO. If no packets are shown the sender has not sent any weather packets the latest 10 day(s).
| Time | Temp. | Humidity | Pressure | Rain* | Wind** | Luminosity | Snow |
|---|---|---|---|---|---|---|---|
| 1777405527 | 8.33° C | 68% | 1008.2 hPa | 0 mm | - | 202 W/m² | - |
| 1777404917 | 8.33° C | 68% | 1008 hPa | 0 mm | - | 196 W/m² | - |
| 1777404318 | 8.33° C | 68% | 1007.8 hPa | 0 mm | - | 235 W/m² | - |
| 1777403718 | 8.33° C | 68% | 1007.6 hPa | 0 mm | - | 264 W/m² | - |
| 1777403118 | 8.89° C | 67% | 1007.4 hPa | 0 mm | - | 306 W/m² | - |
| 1777402518 | 8.89° C | 67% | 1007.2 hPa | 0 mm | - | 325 W/m² | - |
| 1777401918 | 9.44° C | 67% | 1006.9 hPa | 0 mm | - | 387 W/m² | - |
| 1777401318 | 10° C | 66% | 1006.4 hPa | 0 mm | - | 555 W/m² | - |
| 1777400716 | 10° C | 66% | 1006.1 hPa | 0 mm | - | 672 W/m² | - |
| 1777400116 | 10° C | 66% | 1005.8 hPa | 0 mm | - | 809 W/m² | - |
| 1777399516 | 9.44° C | 67% | 1005.8 hPa | 0 mm | - | 981 W/m² | - |
| 1777398916 | 8.89° C | 69% | 1005.8 hPa | 0 mm | - | 736 W/m² | - |
| 1777398316 | 8.33° C | 70% | 1006 hPa | 0 mm | - | 413 W/m² | - |
| 1777397717 | 8.33° C | 71% | 1006 hPa | 0 mm | - | 363 W/m² | - |
| 1777397117 | 8.33° C | 71% | 1005.8 hPa | 0 mm | - | 472 W/m² | - |
| 1777396517 | 8.33° C | 72% | 1005.8 hPa | 0 mm | - | 391 W/m² | - |
| 1777395918 | 8.89° C | 71% | 1005.7 hPa | 0 mm | - | 382 W/m² | - |
| 1777395317 | 8.89° C | 70% | 1005.3 hPa | 0 mm | - | 607 W/m² | - |
| 1777394717 | 8.33° C | 72% | 1005 hPa | 0 mm | - | 559 W/m² | - |
| 1777394117 | 8.33° C | 71% | 1004.9 hPa | 0 mm | - | 415 W/m² | - |
| 1777393517 | 8.89° C | 70% | 1004.6 hPa | 0 mm | - | 412 W/m² | - |
| 1777392925 | 9.44° C | 68% | 1004.3 hPa | 0 mm | - | 582 W/m² | - |
| 1777392319 | 8.89° C | 69% | 1003.9 hPa | 0 mm | - | 616 W/m² | - |
| 1777391721 | 9.44° C | 68% | 1003.4 hPa | 0 mm | - | 814 W/m² | - |
| 1777391118 | 8.89° C | 69% | 1003.1 hPa | 0 mm | - | 867 W/m² | - |
* Rain latest hour (hover to see other rain measurements)
** Current wind speed in m/s (hover to see current wind gust speed)